AAL767 KPHX-KLAX

Flight info

Callsign AAL767
Flight time 0h 58m
Altitude 32000
Route KEENS3 WLVRN ESTWD HLYWD1
Aircraft A321/M-SDE3FGHIRWY/LB1

Departure

Time 2026-05-07 13:16
Airport Phoenix Sky Harbor International Airport (KPHX)

Arrival

Time 2026-05-07 14:14
Airport Los Angeles International Airport (KLAX)
Time Latitude Longitude Altitude Speed Heading
2026-05-07 12:10 33.43832 -112.00244 1131 ft 0 kts 152°
2026-05-07 13:06 33.43839 -112.00248 1135 ft 4 kts 152°
2026-05-07 13:06 33.43863 -112.00262 1131 ft 4 kts 163°
2026-05-07 13:06 33.43889 -112.00267 1131 ft 4 kts 189°
2026-05-07 13:06 33.43910 -112.00257 1136 ft 4 kts 238°
2026-05-07 13:07 33.43915 -112.00245 1131 ft 1 kts 248°
2026-05-07 13:09 33.43911 -112.00257 1135 ft 4 kts 248°
2026-05-07 13:09 33.43905 -112.00299 1131 ft 7 kts 266°
2026-05-07 13:10 33.43910 -112.00360 1131 ft 8 kts 299°
2026-05-07 13:10 33.43964 -112.00401 1133 ft 11 kts 312°
2026-05-07 13:10 33.43974 -112.00498 1131 ft 13 kts 270°
2026-05-07 13:10 33.43975 -112.00620 1136 ft 16 kts 270°
2026-05-07 13:11 33.43974 -112.00762 1132 ft 18 kts 269°
2026-05-07 13:11 33.43974 -112.00923 1135 ft 20 kts 270°
2026-05-07 13:11 33.43975 -112.01092 1133 ft 21 kts 271°
2026-05-07 13:11 33.43975 -112.01266 1131 ft 21 kts 270°
2026-05-07 13:12 33.43975 -112.01449 1133 ft 23 kts 270°
2026-05-07 13:12 33.43975 -112.01633 1132 ft 23 kts 270°
2026-05-07 13:12 33.43975 -112.01826 1131 ft 24 kts 269°
2026-05-07 13:12 33.43974 -112.02027 1133 ft 24 kts 270°
2026-05-07 13:13 33.43975 -112.02218 1129 ft 23 kts 270°
2026-05-07 13:13 33.43974 -112.02403 1128 ft 21 kts 270°
2026-05-07 13:13 33.43975 -112.02568 1126 ft 19 kts 270°
2026-05-07 13:13 33.43976 -112.02722 1134 ft 18 kts 270°
2026-05-07 13:14 33.43975 -112.02861 1128 ft 15 kts 269°
2026-05-07 13:14 33.43985 -112.02951 1122 ft 7 kts 311°
2026-05-07 13:14 33.44043 -112.02969 1121 ft 10 kts
2026-05-07 13:14 33.44087 -112.02912 1124 ft 11 kts 86°
2026-05-07 13:15 33.44087 -112.02885 1126 ft 0 kts 89°
2026-05-07 13:15 33.44087 -112.02864 1124 ft 18 kts 89°
2026-05-07 13:15 33.44086 -112.02387 1125 ft 94 kts 90°
2026-05-07 13:15 33.44085 -112.01367 1133 ft 151 kts 90°
2026-05-07 13:16 33.44084 -111.99998 1549 ft 163 kts 90°
2026-05-07 13:16 33.44088 -111.98684 2376 ft 154 kts 91°
2026-05-07 13:16 33.44050 -111.97395 2999 ft 157 kts 94°
2026-05-07 13:16 33.43980 -111.96013 3311 ft 176 kts 94°
2026-05-07 13:17 33.43895 -111.94462 3543 ft 197 kts 93°
2026-05-07 13:17 33.43797 -111.92731 3711 ft 220 kts 93°
2026-05-07 13:17 33.43690 -111.90827 4061 ft 236 kts 93°
2026-05-07 13:17 33.43554 -111.88865 4823 ft 237 kts 99°
2026-05-07 13:18 33.42938 -111.87063 5558 ft 241 kts 126°
2026-05-07 13:18 33.41697 -111.85701 6275 ft 245 kts 144°
2026-05-07 13:18 33.40295 -111.84518 7017 ft 249 kts 145°
2026-05-07 13:18 33.38683 -111.83750 7686 ft 256 kts 174°
2026-05-07 13:19 33.36926 -111.84102 8300 ft 263 kts 207°
2026-05-07 13:19 33.35576 -111.85570 8877 ft 268 kts 242°
2026-05-07 13:19 33.35106 -111.87703 9410 ft 268 kts 275°
2026-05-07 13:19 33.35290 -111.89929 10020 ft 271 kts 279°
2026-05-07 13:20 33.35509 -111.92145 10656 ft 273 kts 279°
2026-05-07 13:20 33.35741 -111.94476 10969 ft 294 kts 278°
2026-05-07 13:20 33.35989 -111.97001 11154 ft 317 kts 278°
2026-05-07 13:20 33.36250 -111.99713 11312 ft 340 kts 278°
2026-05-07 13:21 33.36540 -112.02593 11640 ft 354 kts 279°
2026-05-07 13:21 33.36921 -112.05531 12256 ft 359 kts 281°
2026-05-07 13:21 33.37360 -112.08485 12923 ft 363 kts 282°
2026-05-07 13:21 33.37828 -112.11466 13561 ft 366 kts 282°
2026-05-07 13:22 33.38299 -112.14431 14155 ft 370 kts 282°
2026-05-07 13:22 33.38774 -112.17473 14757 ft 374 kts 282°
2026-05-07 13:22 33.39244 -112.20547 15345 ft 378 kts 281°
2026-05-07 13:22 33.39709 -112.23659 15940 ft 382 kts 281°
2026-05-07 13:23 33.40171 -112.26805 16530 ft 386 kts 281°
2026-05-07 13:23 33.40634 -112.29979 17098 ft 389 kts 281°
2026-05-07 13:23 33.41101 -112.33186 17648 ft 393 kts 281°
2026-05-07 13:23 33.41575 -112.36423 18194 ft 397 kts 281°
2026-05-07 13:24 33.42056 -112.39687 18734 ft 400 kts 281°
2026-05-07 13:24 33.42534 -112.42935 19274 ft 403 kts 281°
2026-05-07 13:24 33.43020 -112.46251 19821 ft 406 kts 281°
2026-05-07 13:24 33.43505 -112.49594 20362 ft 409 kts 281°
2026-05-07 13:25 33.43991 -112.52961 20893 ft 412 kts 281°
2026-05-07 13:25 33.44481 -112.56353 21401 ft 415 kts 281°
2026-05-07 13:25 33.44944 -112.59773 21903 ft 419 kts 277°
2026-05-07 13:25 33.45073 -112.63276 22398 ft 422 kts 272°
2026-05-07 13:26 33.45117 -112.66799 22873 ft 425 kts 272°
2026-05-07 13:26 33.45159 -112.70300 23331 ft 428 kts 272°
2026-05-07 13:26 33.45198 -112.73871 23783 ft 430 kts 272°
2026-05-07 13:26 33.45293 -112.77460 24199 ft 433 kts 277°
2026-05-07 13:27 33.45815 -112.81005 24620 ft 433 kts 287°
2026-05-07 13:27 33.46814 -112.84399 25022 ft 433 kts 295°
2026-05-07 13:27 33.47994 -112.87726 25419 ft 435 kts 295°
2026-05-07 13:27 33.49174 -112.91072 25817 ft 437 kts 295°
2026-05-07 13:28 33.50340 -112.94397 26185 ft 440 kts 295°
2026-05-07 13:28 33.51523 -112.97788 26551 ft 443 kts 295°
2026-05-07 13:28 33.52712 -113.01202 26916 ft 445 kts 295°
2026-05-07 13:28 33.53909 -113.04636 27275 ft 447 kts 295°
2026-05-07 13:29 33.55109 -113.08084 27651 ft 450 kts 295°
2026-05-07 13:29 33.56315 -113.11550 27983 ft 452 kts 295°
2026-05-07 13:29 33.57527 -113.15037 28325 ft 454 kts 296°
2026-05-07 13:29 33.58744 -113.18542 28652 ft 457 kts 296°
2026-05-07 13:30 33.59951 -113.22022 28968 ft 459 kts 296°
2026-05-07 13:30 33.61176 -113.25561 29265 ft 461 kts 296°
2026-05-07 13:30 33.62407 -113.29121 29559 ft 463 kts 296°
2026-05-07 13:30 33.63644 -113.32696 29856 ft 465 kts 296°
2026-05-07 13:31 33.64886 -113.36286 30137 ft 467 kts 296°
2026-05-07 13:31 33.66133 -113.39895 30427 ft 469 kts 296°
2026-05-07 13:31 33.67383 -113.43518 30728 ft 471 kts 296°
2026-05-07 13:31 33.68635 -113.47156 31026 ft 473 kts 296°
2026-05-07 13:32 33.69894 -113.50815 31330 ft 474 kts 296°
2026-05-07 13:32 33.71147 -113.54464 31736 ft 472 kts 296°
2026-05-07 13:32 33.72379 -113.58066 31978 ft 472 kts 296°
2026-05-07 13:32 33.73613 -113.61680 32035 ft 461 kts 296°
2026-05-07 13:33 33.74812 -113.65197 32035 ft 450 kts 296°
2026-05-07 13:33 33.75995 -113.68660 32037 ft 446 kts 296°
2026-05-07 13:33 33.78348 -113.75535 32026 ft 444 kts 297°
2026-05-07 13:34 33.81877 -113.85842 32026 ft 444 kts 297°
2026-05-07 13:35 33.84196 -113.92675 32026 ft 444 kts 297°
2026-05-07 13:35 33.86524 -113.99558 32022 ft 444 kts 297°
2026-05-07 13:36 33.88852 -114.06441 32022 ft 444 kts 297°
2026-05-07 13:36 33.90890 -114.13473 32022 ft 450 kts 286°
2026-05-07 13:37 33.92129 -114.20807 32018 ft 450 kts 285°
2026-05-07 13:37 33.93376 -114.28198 32016 ft 450 kts 286°
2026-05-07 13:38 33.94626 -114.35584 32016 ft 450 kts 286°
2026-05-07 13:38 33.95880 -114.42968 32013 ft 450 kts 286°
2026-05-07 13:39 33.97108 -114.50305 32011 ft 450 kts 285°
2026-05-07 13:39 33.98330 -114.57688 32006 ft 449 kts 285°
2026-05-07 13:40 33.99557 -114.65069 32009 ft 449 kts 285°
2026-05-07 13:40 34.00780 -114.72393 32012 ft 448 kts 285°
2026-05-07 13:41 34.02004 -114.79750 32021 ft 447 kts 285°
2026-05-07 13:41 34.03207 -114.87093 32027 ft 446 kts 285°
2026-05-07 13:42 34.04406 -114.94423 32028 ft 445 kts 285°
2026-05-07 13:42 34.05586 -115.01686 32025 ft 444 kts 285°
2026-05-07 13:43 34.06779 -115.08982 32029 ft 443 kts 285°
2026-05-07 13:43 34.07971 -115.16270 32035 ft 442 kts 285°
2026-05-07 13:44 34.09145 -115.23538 32042 ft 441 kts 285°
2026-05-07 13:44 34.10305 -115.30745 32047 ft 440 kts 285°
2026-05-07 13:45 34.11470 -115.37998 32050 ft 440 kts 285°
2026-05-07 13:45 34.12629 -115.45241 32054 ft 439 kts 285°
2026-05-07 13:46 34.13783 -115.52470 32059 ft 439 kts 285°
2026-05-07 13:46 34.14920 -115.59645 32065 ft 438 kts 285°
2026-05-07 13:47 34.16026 -115.66866 32069 ft 439 kts 281°
2026-05-07 13:47 34.15880 -115.74286 32073 ft 447 kts 267°
2026-05-07 13:48 34.15152 -115.81737 32076 ft 447 kts 268°
2026-05-07 13:48 34.14433 -115.89173 31862 ft 442 kts 268°
2026-05-07 13:48 34.14073 -115.92839 31400 ft 438 kts 268°
2026-05-07 13:49 34.13721 -115.96433 30917 ft 436 kts 267°
2026-05-07 13:49 34.13366 -116.00051 30458 ft 433 kts 267°
2026-05-07 13:49 34.13012 -116.03652 29997 ft 430 kts 267°
2026-05-07 13:49 34.12659 -116.07227 29548 ft 427 kts 267°
2026-05-07 13:50 34.12310 -116.10772 29112 ft 425 kts 267°
2026-05-07 13:50 34.11963 -116.14302 28669 ft 422 kts 267°
2026-05-07 13:50 34.11620 -116.17805 28244 ft 420 kts 267°
2026-05-07 13:50 34.11276 -116.21291 27820 ft 417 kts 267°
2026-05-07 13:51 34.10931 -116.24761 27399 ft 415 kts 267°
2026-05-07 13:51 34.10645 -116.27622 27045 ft 414 kts 267°
2026-05-07 13:51 34.10303 -116.31055 26628 ft 412 kts 267°
2026-05-07 13:51 34.09950 -116.34481 26208 ft 410 kts 266°
2026-05-07 13:52 34.09584 -116.37884 25784 ft 409 kts 266°
2026-05-07 13:52 34.09214 -116.41277 25342 ft 407 kts 266°
2026-05-07 13:52 34.08846 -116.44656 24918 ft 405 kts 266°
2026-05-07 13:52 34.08484 -116.48010 24622 ft 399 kts 266°
2026-05-07 13:53 34.08129 -116.51283 24504 ft 388 kts 266°
2026-05-07 13:53 34.07786 -116.54427 24350 ft 378 kts 266°
2026-05-07 13:53 34.07445 -116.57529 24195 ft 368 kts 266°
2026-05-07 13:53 34.07120 -116.60553 23968 ft 361 kts 267°
2026-05-07 13:54 34.06836 -116.63479 23619 ft 358 kts 268°
2026-05-07 13:54 34.06567 -116.66457 23303 ft 356 kts 268°
2026-05-07 13:54 34.06311 -116.69355 22990 ft 355 kts 268°
2026-05-07 13:54 34.06050 -116.72303 22674 ft 353 kts 268°
2026-05-07 13:55 34.05791 -116.75203 22365 ft 351 kts 268°
2026-05-07 13:55 34.05525 -116.78103 22052 ft 345 kts 267°
2026-05-07 13:55 34.05257 -116.80962 21741 ft 341 kts 267°
2026-05-07 13:55 34.04987 -116.83792 21431 ft 342 kts 267°
2026-05-07 13:56 34.04713 -116.86724 21107 ft 356 kts 266°
2026-05-07 13:56 34.04430 -116.89677 20759 ft 352 kts 266°
2026-05-07 13:56 34.04095 -116.92579 20426 ft 347 kts 265°
2026-05-07 13:56 34.03719 -116.95440 20103 ft 347 kts 264°
2026-05-07 13:57 34.03321 -116.98349 19765 ft 353 kts 264°
2026-05-07 13:57 34.02922 -117.01269 19661 ft 354 kts 264°
2026-05-07 13:57 34.02533 -117.04157 19581 ft 354 kts 264°
2026-05-07 13:57 34.02164 -117.07087 19515 ft 354 kts 265°
2026-05-07 13:58 34.01817 -117.10019 19401 ft 354 kts 265°
2026-05-07 13:58 34.01479 -117.12950 19140 ft 348 kts 265°
2026-05-07 13:58 34.01141 -117.15845 19067 ft 350 kts 265°
2026-05-07 13:58 34.00799 -117.18758 18836 ft 352 kts 265°
2026-05-07 13:59 34.00494 -117.21338 18435 ft 352 kts 265°
2026-05-07 13:59 34.00147 -117.24256 17967 ft 351 kts 265°
2026-05-07 13:59 33.99805 -117.27145 17438 ft 354 kts 265°
2026-05-07 13:59 33.99455 -117.30082 16971 ft 354 kts 265°
2026-05-07 14:00 33.99107 -117.33000 16487 ft 347 kts 264°
2026-05-07 14:00 33.98767 -117.35837 16066 ft 342 kts 264°
2026-05-07 14:00 33.98431 -117.38674 15609 ft 342 kts 264°
2026-05-07 14:00 33.98096 -117.41510 15167 ft 342 kts 264°
2026-05-07 14:01 33.97763 -117.44344 14719 ft 340 kts 264°
2026-05-07 14:01 33.97444 -117.47112 14272 ft 327 kts 267°
2026-05-07 14:01 33.97455 -117.49835 13860 ft 325 kts 280°
2026-05-07 14:01 33.97888 -117.52482 13434 ft 319 kts 285°
2026-05-07 14:02 33.98338 -117.54996 13054 ft 303 kts 285°
2026-05-07 14:02 33.98768 -117.57438 12711 ft 293 kts 285°
2026-05-07 14:02 33.99183 -117.59792 12321 ft 283 kts 285°
2026-05-07 14:02 33.99585 -117.62091 11958 ft 279 kts 285°
2026-05-07 14:03 33.99986 -117.64367 11609 ft 276 kts 284°
2026-05-07 14:03 34.00386 -117.66626 11263 ft 274 kts 284°
2026-05-07 14:03 34.00599 -117.68902 10907 ft 274 kts 270°
2026-05-07 14:03 34.00411 -117.71147 10569 ft 273 kts 264°
2026-05-07 14:04 34.00188 -117.73406 10235 ft 270 kts 264°
2026-05-07 14:04 33.99969 -117.75647 9882 ft 268 kts 264°
2026-05-07 14:04 33.99750 -117.77862 9548 ft 265 kts 264°
2026-05-07 14:04 33.99533 -117.80048 9217 ft 260 kts 264°
2026-05-07 14:05 33.99320 -117.82189 8881 ft 253 kts 263°
2026-05-07 14:05 33.99115 -117.84272 8612 ft 249 kts 263°
2026-05-07 14:05 33.98915 -117.86332 8261 ft 247 kts 264°
2026-05-07 14:05 33.98717 -117.88380 7975 ft 243 kts 264°
2026-05-07 14:06 33.98525 -117.90390 7664 ft 242 kts 264°
2026-05-07 14:06 33.98334 -117.92380 7338 ft 242 kts 264°
2026-05-07 14:06 33.98131 -117.94387 7022 ft 241 kts 263°
2026-05-07 14:06 33.97929 -117.96380 6712 ft 239 kts 264°
2026-05-07 14:07 33.97733 -117.98361 6439 ft 237 kts 264°
2026-05-07 14:07 33.97539 -118.00334 6201 ft 237 kts 264°
2026-05-07 14:07 33.97345 -118.02298 5905 ft 235 kts 264°
2026-05-07 14:07 33.97153 -118.04247 5596 ft 234 kts 264°
2026-05-07 14:08 33.96964 -118.06155 5291 ft 228 kts 264°
2026-05-07 14:08 33.96780 -118.07994 4993 ft 214 kts 263°
2026-05-07 14:08 33.96607 -118.09739 4727 ft 208 kts 264°
2026-05-07 14:08 33.96435 -118.11468 4446 ft 207 kts 264°
2026-05-07 14:09 33.96264 -118.13188 4171 ft 206 kts 264°
2026-05-07 14:09 33.96092 -118.14902 3895 ft 206 kts 264°
2026-05-07 14:09 33.95923 -118.16608 3622 ft 205 kts 263°
2026-05-07 14:09 33.95753 -118.18299 3357 ft 200 kts 263°
2026-05-07 14:10 33.95596 -118.19866 3101 ft 181 kts 263°
2026-05-07 14:10 33.95453 -118.21291 2877 ft 165 kts 263°
2026-05-07 14:10 33.95318 -118.22630 2658 ft 158 kts 264°
2026-05-07 14:10 33.95188 -118.23929 2464 ft 155 kts 264°
2026-05-07 14:11 33.95059 -118.25204 2250 ft 153 kts 263°
2026-05-07 14:11 33.94932 -118.26467 2049 ft 151 kts 263°
2026-05-07 14:11 33.94805 -118.27721 1850 ft 150 kts 263°
2026-05-07 14:11 33.94680 -118.28962 1661 ft 149 kts 263°
2026-05-07 14:12 33.94556 -118.30191 1468 ft 147 kts 263°
2026-05-07 14:12 33.94434 -118.31391 1274 ft 146 kts 263°
2026-05-07 14:12 33.94311 -118.32600 1073 ft 145 kts 263°
2026-05-07 14:12 33.94189 -118.33806 877 ft 145 kts 263°
2026-05-07 14:13 33.94067 -118.35008 684 ft 145 kts 263°
2026-05-07 14:13 33.93945 -118.36210 491 ft 144 kts 263°
2026-05-07 14:13 33.93823 -118.37409 300 ft 144 kts 263°
2026-05-07 14:13 33.93701 -118.38610 143 ft 144 kts 263°
2026-05-07 14:14 33.93592 -118.39679 124 ft 107 kts 263°
2026-05-07 14:14 33.93514 -118.40409 125 ft 75 kts 263°
2026-05-07 14:14 33.93475 -118.40827 123 ft 28 kts 265°
2026-05-07 14:14 33.93492 -118.41030 126 ft 18 kts 284°
2026-05-07 14:15 33.93529 -118.41150 126 ft 15 kts 290°
2026-05-07 14:15 33.93561 -118.41245 126 ft 10 kts 329°
2026-05-07 14:15 33.93635 -118.41267 126 ft 12 kts 352°
2026-05-07 14:15 33.93717 -118.41276 126 ft 11 kts
2026-05-07 14:16 33.93784 -118.41254 124 ft 9 kts 14°
2026-05-07 14:16 33.93835 -118.41211 121 ft 10 kts 69°
2026-05-07 14:16 33.93845 -118.41124 126 ft 10 kts 87°
2026-05-07 14:16 33.93854 -118.41037 126 ft 11 kts 81°
2026-05-07 14:17 33.93866 -118.40937 126 ft 13 kts 83°
2026-05-07 14:17 33.93875 -118.40847 126 ft 10 kts 78°
2026-05-07 14:17 33.93902 -118.40813 124 ft 1 kts 19°
2026-05-07 14:17 33.93911 -118.40811 122 ft 2 kts 10°
2026-05-07 14:18 33.93932 -118.40810 122 ft 3 kts 355°
2026-05-07 14:18 33.93938 -118.40811 126 ft 0 kts 352°
2026-05-07 14:18 33.93940 -118.40812 122 ft 1 kts 352°
2026-05-07 14:19 33.93958 -118.40814 122 ft 5 kts 353°
2026-05-07 14:19 33.93997 -118.40820 126 ft 7 kts 353°
2026-05-07 14:19 33.94030 -118.40851 126 ft 7 kts 281°
2026-05-07 14:19 33.94027 -118.40898 126 ft 4 kts 263°
2026-05-07 14:20 33.94025 -118.40909 126 ft 0 kts 263°
2026-05-07 14:20 33.94023 -118.40932 126 ft 0 kts 264°
2026-05-07 14:22 33.93965 -118.40604 126 ft 0 kts 328°
2026-05-07 14:23 33.94002 -118.40606 125 ft 0 kts 294°